[[{"header":{"parameterUnit":"m.s-1","parameterCategory":1,"la1":30.2991,"la2":30.254,"lo1":-89.0895,"lo2":-89.0444,"dy":0.0017,"dx":0.0017,"nx":28,"ny":28,"refTime":"2023-08-22T09:00:00:Z","depth":0,"parameterNumber":2,"parameterNumberName":"U-component_of_WINDS"},"data":[0,0,0,0,0,0,0,0,0,0,0,0,0,0,0,0,0,0,0,0,0,0,0,0,0,0,0,0,0,0,0,0,0,0,0,0,0,0,0,0,0,0,0,0,0,0,0,0,0,0,0,0,0,0,0,0,0,0,0.2518,0.2519,0,0.2646,0.2648,0.2649,0.2691,0.269,0.269,0.2689,0.282,0.2824,0.2828,0,0,0,0,0,0,0,0,0,0,0,0,0,0.2304,0.2308,0.2518,0.2519,0.2521,0.2646,0.2648,0.265,0.2691,0.269,0.269,0.2689,0.2819,0.2823,0.2828,0,0,0,0,0,0,0,0,0,0,0,0,0,0.2411,0.2309,0.2517,0.2557,0.2561,0.2646,0.2648,0.265,0.2691,0.269,0.2689,0.2689,0.2817,0.2823,0.2829,0.2883,0,0,0.2847,0.285,0,0,0,0,0,0,0,0,0.2405,0.2419,0.2549,0.2554,0.256,0.2652,0.2621,0.2728,0.2691,0.2642,0.2689,0.2688,0.2765,0.2775,0.2801,0.2889,0.2895,0.2848,0.2851,0.2854,0.2856,0,0,0,0,0,0,0,0.2398,0.2414,0.2569,0.2551,0.2557,0.2566,0.2581,0.2641,0.2706,0.2646,0.2649,0.2664,0.2767,0.2795,0.2804,0.2897,0.2848,0.2853,0.2857,0.2859,0.3032,0.3033,0,0,0,0,0,0,0.2384,0.2407,0.2564,0.2572,0.2479,0.2571,0.2587,0.2623,0.2706,0.2718,0.2665,0.2666,0.2785,0.2797,0.2809,0.2876,0.2854,0.286,0.2863,0.3031,0.3032,0.3033,0,0,0,0,0,0,0.2379,0.2398,0.2559,0.2491,0.2512,0.2576,0.2616,0.2626,0.2654,0.272,0.2732,0.2681,0.2785,0.2801,0.2864,0.2881,0.2862,0.2868,0.303,0.3031,0.3033,0.3011,0,0,0,0,0,0,0.2373,0.2396,0.2418,0.2491,0.2516,0.2613,0.2617,0.2629,0.2664,0.2666,0.2739,0.275,0.2785,0.2854,0.2869,0.2889,0.2873,0.3028,0.303,0.3032,0.301,0.3011,0.3012,0,0,0,0,0,0.2365,0.2408,0.2419,0.2438,0.2545,0.2614,0.2628,0.2668,0.2665,0.2688,0.2729,0.2747,0.2876,0.286,0.2878,0.2899,0.3028,0.303,0.3032,0.301,0.3011,0.3012,0,0,0,0,0,0,0.2336,0.2418,0.2432,0.2499,0.2549,0.2621,0.265,0.2669,0.2721,0.2721,0.2768,0.2784,0.2843,0.2877,0.2858,0.2954,0.2952,0.2958,0.293,0.2931,0.2932,0.2923,0.2878,0,0,0,0,0,0.2337,0.2387,0.2456,0.2508,0.2533,0.2587,0.2618,0.2645,0.2698,0.272,0.2767,0.2817,0.2869,0.2902,0.2953,0.3015,0.303,0.3038,0.3039,0.3039,0.3044,0.3076,0.3079,0.304,0.304,0.304,0,0,0.2341,0.2391,0.242,0.2504,0.2546,0.2594,0.2605,0.2657,0.2693,0.2728,0.279,0.2825,0.2884,0.2946,0.2975,0.2977,0.3057,0.3042,0.3042,0.3046,0.3078,0.3082,0.3085,0.3042,0.3041,0.3041,0,0,0.2372,0.2416,0.2464,0.2504,0.2567,0.2602,0.2613,0.2682,0.2706,0.2769,0.2795,0.2838,0.2927,0.2967,0.2999,0.304,0.3058,0.3055,0.3061,0.3091,0.3094,0.3097,0.311,0.3115,0.306,0.3059,0.3059,0,0.2368,0.2444,0.2486,0.2536,0.257,0.2602,0.2649,0.2687,0.2763,0.2786,0.2785,0.2895,0.2937,0.3007,0.3017,0.3042,0.3055,0.3048,0.3091,0.3094,0.3097,0.311,0.3115,0.3059,0.3059,0.3059,0.3059,0,0.2435,0.2487,0.2517,0.2589,0.2627,0.2675,0.2722,0.2755,0.2777,0.2812,0.2873,0.2924,0.2985,0.3003,0.3026,0.3076,0.3074,0.3082,0.3081,0.31,0.3112,0.3118,0.3058,0.3058,0.3058,0.3058,0,0,0.2454,0.2546,0.2556,0.2587,0.2657,0.2697,0.2745,0.2804,0.2831,0.2881,0.2921,0.2993,0.2999,0.3036,0.3062,0.3089,0.3115,0.3093,0.3095,0.3094,0.317,0.3164,0.3169,0.3127,0.3128,0.3129,0.3165,0,0.2493,0.2582,0.2619,0.2689,0.2736,0.2765,0.2807,0.2852,0.2885,0.2928,0.2963,0.3013,0.3019,0.304,0.3068,0.3106,0.3131,0.3104,0.3164,0.3165,0.3148,0.3176,0.3171,0.3202,0.317,0.3171,0.3172,0,0.2552,0.2601,0.2676,0.2737,0.2758,0.2795,0.285,0.2891,0.2943,0.2964,0.3002,0.3027,0.3076,0.3071,0.3138,0.3119,0.3144,0.3166,0.3169,0.3176,0.317,0.3183,0.3213,0.3218,0.318,0.318,0.3179,0,0.2556,0.2641,0.2696,0.2723,0.2796,0.282,0.2851,0.2902,0.2934,0.2981,0.3002,0.3055,0.3083,0.3122,0.3159,0.3153,0.3222,0.3221,0.324,0.3239,0.3254,0.3253,0.3288,0.3271,0.3271,0.3271,0.327,0,0.2596,0.264,0.2699,0.2733,0.2782,0.2823,0.287,0.2903,0.2947,0.2987,0.3015,0.3051,0.3098,0.3139,0.3168,0.3217,0.3231,0.3248,0.3255,0.3245,0.3243,0.3263,0.3262,0.3272,0.3272,0.3271,0.3271,0,0.2609,0.2651,0.2713,0.2775,0.2792,0.2825,0.2878,0.2911,0.2943,0.2993,0.3006,0.3057,0.3107,0.3147,0.3212,0.3231,0.3283,0.3291,0.3266,0.3269,0.3286,0.3283,0.3335,0.3343,0.3321,0.3321,0.3321,0,0.2632,0.2667,0.2732,0.2761,0.2791,0.2837,0.2869,0.2909,0.2941,0.3,0.3025,0.3076,0.312,0.3197,0.3239,0.3288,0.3298,0.3312,0.3305,0.3293,0.3296,0.3294,0.3297,0.3313,0.3313,0.3313,0.3313,0,0.2667,0.2685,0.2731,0.2783,0.282,0.2863,0.2906,0.2927,0.2974,0.3008,0.3059,0.3093,0.3158,0.3208,0.3261,0.3291,0.3309,0.3315,0.3321,0.3312,0.3295,0.3303,0.3267,0.3314,0.3314,0.3314,0.3314,0.3314,0.2685,0.2716,0.2767,0.2816,0.2852,0.2891,0.2924,0.2959,0.3003,0.3059,0.308,0.3131,0.3178,0.3251,0.3281,0.3321,0.3323,0.3333,0.3335,0.3337,0.3335,0.3288,0.333,0.333,0.333,0.3331,0.3331,0,0.2721,0.2754,0.2798,0.2857,0.2895,0.2908,0.2956,0.2986,0.3031,0.3074,0.3115,0.3172,0.322,0.3264,0.3313,0.3336,0.3345,0.3347,0.3346,0.3352,0.3331,0.332,0.3339,0.3339,0.3339,0.3339,0.3339,0.3339,0.2743,0.2796,0.2819,0.2889,0.2921,0.2972,0.2998,0.3033,0.3067,0.3129,0.3169,0.3197,0.3239,0.3291,0.3334,0.3346,0.3362,0.3362,0.3376,0.3355,0.3354,0.3353,0.3343,0.3366,0.3366,0.3393,0.3394,0.3394]},{"header":{"parameterUnit":"m.s-1","parameterCategory":1,"la1":30.2991,"la2":30.254,"lo1":-89.0895,"lo2":-89.0444,"dy":0.0017,"dx":0.0017,"nx":28,"ny":28,"refTime":"2023-08-22T09:00:00:Z","depth":0,"parameterNumber":3,"parameterNumberName":"V-component_of_WINDS"},"data":[0,0,0,0,0,0,0,0,0,0,0,0,0,0,0,0,0,0,0,0,0,0,0,0,0,0,0,0,0,0,0,0,0,0,0,0,0,0,0,0,0,0,0,0,0,0,0,0,0,0,0,0,0,0,0,0,0,0,3.0642,3.0641,0,3.0619,3.0619,3.0618,3.0558,3.0556,3.0555,3.0554,3.0531,3.0532,3.0533,0,0,0,0,0,0,0,0,0,0,0,0,0,3.0633,3.0634,3.0642,3.0641,3.0641,3.0619,3.0619,3.0618,3.0558,3.0556,3.0555,3.0553,3.0531,3.0532,3.0533,0,0,0,0,0,0,0,0,0,0,0,0,0,3.0626,3.0634,3.0642,3.0608,3.0605,3.0619,3.0619,3.0618,3.0558,3.0556,3.0554,3.0553,3.0531,3.0532,3.0533,3.0578,0,0,3.0536,3.0536,0,0,0,0,0,0,0,0,3.0627,3.0627,3.0613,3.0611,3.0607,3.0589,3.0607,3.0605,3.0559,3.0576,3.0554,3.0552,3.0552,3.0551,3.0551,3.0577,3.0576,3.0536,3.0536,3.0537,3.0537,0,0,0,0,0,0,0,3.0627,3.0627,3.0633,3.0613,3.0609,3.0595,3.0591,3.0607,3.0575,3.0574,3.057,3.0568,3.055,3.0551,3.055,3.0575,3.0536,3.0536,3.0537,3.0537,3.0634,3.0636,0,0,0,0,0,0,3.0633,3.0628,3.0633,3.0632,3.0612,3.0596,3.0593,3.0597,3.0575,3.057,3.057,3.0565,3.055,3.0549,3.0549,3.0597,3.0537,3.0537,3.0538,3.0632,3.0634,3.0636,0,0,0,0,0,0,3.0633,3.0634,3.0634,3.0629,3.0628,3.0599,3.0604,3.0597,3.0598,3.0572,3.0566,3.0576,3.0548,3.0548,3.057,3.0596,3.0538,3.0539,3.0629,3.0633,3.0635,3.0695,0,0,0,0,0,0,3.0633,3.0634,3.065,3.063,3.0628,3.0655,3.0605,3.0598,3.0599,3.0593,3.0576,3.0571,3.0547,3.0569,3.0571,3.0596,3.0539,3.0627,3.0631,3.0634,3.0691,3.07,3.0708,0,0,0,0,0,3.0633,3.0669,3.0651,3.0652,3.0648,3.0657,3.0656,3.0627,3.0602,3.0618,3.0601,3.0571,3.0594,3.0572,3.0574,3.0599,3.0625,3.063,3.0634,3.0687,3.0698,3.0708,0,0,0,0,0,0,3.0693,3.0665,3.0646,3.0676,3.067,3.0647,3.0665,3.0641,3.0641,3.0635,3.0601,3.0597,3.0623,3.0615,3.0591,3.064,3.0605,3.061,3.0644,3.0655,3.0663,3.0662,3.054,0,0,0,0,0,3.071,3.0719,3.0695,3.0725,3.0722,3.0695,3.0698,3.0677,3.0668,3.0665,3.065,3.0643,3.0648,3.0652,3.0655,3.0691,3.0685,3.071,3.0718,3.0725,3.0728,3.0744,3.0754,3.0651,3.0651,3.0651,0,0,3.0745,3.0731,3.0739,3.0736,3.0728,3.0738,3.0693,3.0706,3.0712,3.0667,3.0685,3.0675,3.0665,3.0693,3.0705,3.0686,3.0756,3.0731,3.0737,3.0736,3.075,3.0759,3.0768,3.0654,3.0654,3.0653,0,0,3.0812,3.0804,3.0826,3.0819,3.0808,3.079,3.0796,3.0777,3.0767,3.0786,3.0752,3.076,3.0771,3.0764,3.0762,3.0829,3.08,3.0832,3.0874,3.0889,3.0897,3.0904,3.0924,3.0932,3.0836,3.0836,3.0836,0,3.0856,3.0869,3.084,3.0855,3.0853,3.0814,3.0835,3.0831,3.0822,3.0822,3.0802,3.0813,3.0804,3.0829,3.0845,3.0846,3.085,3.083,3.0899,3.0905,3.0911,3.093,3.0938,3.084,3.0839,3.0839,3.0839,0,3.0922,3.0932,3.0951,3.0942,3.0944,3.0962,3.0936,3.0942,3.0922,3.0906,3.0925,3.0914,3.0913,3.0919,3.09,3.0941,3.0929,3.0905,3.0867,3.0925,3.0941,3.0949,3.0845,3.0843,3.0842,3.0841,0,0,3.1021,3.0998,3.1005,3.0999,3.0985,3.0992,3.1009,3.1008,3.1012,3.1009,3.102,3.1031,3.1008,3.1006,3.0986,3.1001,3.105,3.0974,3.0973,3.0985,3.1091,3.1106,3.1114,3.1034,3.1035,3.1036,3.109,0,3.1081,3.1106,3.1081,3.1112,3.1119,3.1083,3.1098,3.1091,3.1077,3.1082,3.1068,3.1074,3.1046,3.1044,3.1057,3.1041,3.107,3.1038,3.1041,3.1042,3.1039,3.1124,3.1139,3.1191,3.1097,3.1098,3.1099,0,3.1152,3.115,3.1181,3.1163,3.1166,3.1179,3.1175,3.1182,3.1173,3.1162,3.1161,3.1137,3.1152,3.112,3.1139,3.1117,3.1118,3.1111,3.1113,3.1107,3.107,3.1116,3.1207,3.1213,3.111,3.1109,3.1108,0,3.1215,3.1222,3.124,3.1237,3.1219,3.1229,3.1222,3.1212,3.1212,3.1211,3.121,3.1212,3.1211,3.1212,3.1189,3.1168,3.121,3.1176,3.1199,3.1199,3.1205,3.1204,3.1292,3.1214,3.1214,3.1214,3.1214,0,3.1281,3.13,3.1268,3.1278,3.1299,3.1272,3.1293,3.1283,3.1274,3.1282,3.1254,3.1262,3.1233,3.1238,3.1222,3.1238,3.1239,3.1229,3.1224,3.1229,3.1229,3.1225,3.1219,3.1216,3.1216,3.1215,3.1215,0,3.1352,3.1333,3.1349,3.1331,3.1328,3.1343,3.1327,3.1336,3.1323,3.1333,3.1334,3.1312,3.1317,3.1295,3.1297,3.1285,3.1309,3.13,3.1311,3.1306,3.1329,3.1325,3.1413,3.1422,3.1343,3.1344,3.1345,0,3.1392,3.1406,3.139,3.1393,3.1387,3.1393,3.1393,3.1369,3.1371,3.1363,3.1373,3.1375,3.1375,3.1385,3.1368,3.1369,3.1357,3.1388,3.1356,3.1361,3.1352,3.1349,3.1349,3.1393,3.1394,3.1394,3.1395,0,3.1464,3.1454,3.1456,3.1455,3.1456,3.1454,3.145,3.1455,3.1429,3.1432,3.1437,3.1437,3.1438,3.144,3.1438,3.1431,3.1408,3.1406,3.141,3.1413,3.1417,3.1411,3.1323,3.1403,3.1402,3.1401,3.1401,3.1401,3.1518,3.1528,3.1517,3.152,3.1515,3.1512,3.1519,3.1507,3.151,3.1508,3.1495,3.1501,3.1493,3.1488,3.1483,3.1488,3.1473,3.1481,3.1482,3.1483,3.1485,3.1421,3.1488,3.1488,3.1487,3.1487,3.1487,0,3.1584,3.1577,3.158,3.1575,3.1578,3.1558,3.1553,3.1556,3.1562,3.1557,3.1557,3.1562,3.1564,3.155,3.155,3.1556,3.1546,3.1557,3.1553,3.1551,3.15,3.1494,3.1565,3.1565,3.1565,3.1565,3.1565,3.1565,3.1619,3.1633,3.1622,3.1634,3.1626,3.1631,3.163,3.1627,3.1622,3.1628,3.163,3.1621,3.1611,3.1611,3.1612,3.1608,3.1607,3.1621,3.1613,3.1563,3.1555,3.1548,3.1542,3.1622,3.1622,3.1663,3.1664,3.1664]}]]